sat.trackr.live / text

‹ back to catalog

STARLINK-32044

NORAD 60092 · 2024-117B

PAYLOAD ACTIVE UNKNOWN

§ Identity

Operator
Country
US
Launch date
2024-06-23
Launch site
AFETR
Launch vehicle
Mass (kg)
RCS (m²)

Purposes: comms

External: N2YO · Heavens-Above · Gunter

§ Orbital elements

Epoch: 2026-09-21T05:24:15.534720Z

Period
93.85 min
Inclination
53.1601°
Eccentricity
0.0000625
Mean motion
15.34383536 rev/d
Perigee alt
462.3 km
Apogee alt
463.2 km
Semi-major
6,840.9 km
B*
-1.8086e-5
RAAN
206.0569°
Arg perigee
119.0010°
Mean anomaly
241.1056°
Rev number
12,686

§ Raw data

STARLINK-320441 60092U 24117B   26264.22517980 -.00000986  00000+0 -18086-4 0  99972 60092  53.1601 206.0569 0000625 119.0010 241.1056 15.34383536126861

JSON: /api/v1/satellites/60092 · /tle

For live sub-satellite position, see the globe view (requires WebGL).

§ Visibility from observer

Set your observer location to see the next 7 days of passes ≥ 10°. The values pass through the URL so the page stays shareable.

No JS? Fill the form by hand. The geolocation button needs JavaScript.